Location: Newark
(49.9819°N, 3.0344°E)
Time: 14:17:15
(UTC+00:00)

ISS - Pass Details

Date: 30 January 2020
Orbit: 415 x 423 km, 51.6° (Epoch: 01 March)

Event Time Altitude Azimuth Distance (km) Brightness Sun altitude
Rises 17:23:25 0° 266° (W) 2,380 2.0 -7.6°
Reaches altitude 10° 17:25:32 10° 269° (W) 1,515 0.5 -7.9°
Maximum altitude 17:28:55 68° 352° (N) 462 -3.6 -8.4°
Enters shadow 17:31:57 13° 76° (ENE) 1,367 -1.8 -8.9°
